KE0YON Weather Reports


time (UTC)temp
C
wind
direction
speed
KPH
gust
KPH
rain 1hr
cm
rain 24hr
cm
rain mn
cm
humidity
%
barometer
mb
20260507051514 1 227 1.6 4.8 0.00 0.46 0.43 88 1020.2
20260507050036 1 210 1.6 3.2 0.00 0.46 0.43 88 1020.2
20260507044525 1 228 0.0 6.4 0.00 0.46 0.43 87 1020.3
20260507043026 1 172 1.6 4.8 0.00 0.46 0.43 87 1020.2
20260507041527 1 215 1.6 1.6 0.00 0.48 0.43 87 1020.4
20260507040016 1 212 1.6 3.2 0.00 0.48 0.43 86 1020.3
20260507034524 1 209 1.6 4.8 0.00 0.51 0.43 86 1020.3
20260507033030 2 169 3.2 6.4 0.00 0.51 0.43 86 1020.4
20260507031530 2 175 3.2 6.4 0.00 0.53 0.43 86 1020.4
20260507030034 2 203 3.2 6.4 0.00 0.53 0.43 85 1020.3
20260507024518 2 190 3.2 6.4 0.00 0.56 0.43 84 1020.2
20260507023020 2 138 4.8 8.0 0.00 0.56 0.43 82 1020.2
20260507021540 3 150 6.4 8.0 0.00 0.56 0.43 78 1020.2
20260507020027 3 199 3.2 6.4 0.00 0.56 0.43 77 1020.2
20260507014525 4 191 4.8 8.0 0.00 0.56 0.43 74 1020.2
20260507013016 4 153 6.4 14.5 0.00 0.56 0.43 74 1020.2
20260507011528 5 141 8.0 17.7 0.00 0.56 0.43 73 1019.9
20260507010034 6 217 6.4 12.9 0.00 0.58 0.43 68 1019.9
20260507004526 5 200 6.4 11.3 0.00 0.58 0.43 72 1020.0
20260507003029 5 225 6.4 11.3 0.00 0.61 0.43 74 1019.9
20260507001522 5 211 6.4 14.5 0.00 0.64 0.43 76 1020.2
20260507000022 5 212 8.0 17.7 0.00 0.76 0.43 73 1020.1
20260506234524 6 209 6.4 12.9 0.00 0.84 0.43 70 1019.7
20260506233026 6 221 8.0 12.9 0.00 0.86 0.43 75 1020.0
20260506231529 5 226 6.4 11.3 0.00 0.89 0.43 76 1020.1
20260506230025 4 242 8.0 12.9 0.00 0.89 0.43 80 1020.0
20260506224526 3 222 8.0 14.5 0.00 0.89 0.43 85 1020.0
20260506223023 3 215 9.7 14.5 0.00 0.89 0.43 87 1020.0
20260506221526 2 250 8.0 16.1 0.00 0.89 0.43 88 1020.0
20260506220023 3 219 6.4 11.3 0.00 0.89 0.43 87 1020.0
20260506214520 3 117 4.8 12.9 0.00 0.89 0.43 87 1020.0
20260506213029 3 136 8.0 11.3 0.03 0.89 0.43 84 1020.0
20260506211528 3 129 3.2 9.7 0.03 0.89 0.43 84 1019.9
20260506210013 2 139 1.6 8.0 0.03 0.89 0.43 85 1019.8
20260506204528 2 91 3.2 25.7 0.03 0.89 0.43 87 1019.7
20260506203028 2 52 22.5 32.2 0.00 0.86 0.41 86 1020.0
20260506201532 3 140 4.8 11.3 0.00 0.86 0.41 88 1020.0
20260506200028 2 79 9.7 19.3 0.00 0.86 0.41 91 1020.0
20260506194514 2 68 11.3 19.3 0.03 0.86 0.41 93 1019.9
20260506193020 1 76 12.9 20.9 0.05 0.86 0.41 94 1020.0
20260506191526 1 65 17.7 22.5 0.05 0.86 0.41 95 1019.9
20260506190028 1 56 14.5 20.9 0.05 0.86 0.41 95 1019.8
20260506184527 0 41 9.7 16.1 0.05 0.84 0.38 95 1020.1
20260506183018 0 29 11.3 20.9 0.03 0.81 0.36 95 1020.1
20260506181527 0 21 11.3 14.5 0.03 0.81 0.36 94 1020.2
20260506180027 0 54 9.7 12.9 0.03 0.81 0.36 94 1020.0
20260506174528 0 38 12.9 22.5 0.03 0.79 0.33 94 1020.1
20260506173028 1 13 14.5 22.5 0.03 0.79 0.33 94 1020.2
20260506171532 1 28 16.1 29.0 0.03 0.79 0.33 94 1019.9
20260506170024 0 52 20.9 29.0 0.05 0.79 0.33 94 1019.7
20260506163027 0 68 19.3 30.6 0.08 0.76 0.30 95 1019.2
20260506161537 0 71 17.7 25.7 0.08 0.76 0.30 95 1018.9
20260506160034 0 58 17.7 22.5 0.05 0.74 0.28 95 1019.1
20260506151534 0 27 8.0 12.9 0.00 0.69 0.23 94 1018.5
20260506150031 0 34 11.3 19.3 0.00 0.69 0.23 94 1018.6
20260506140033 0 27 11.3 19.3 0.00 0.69 0.23 94 1018.4
20260506134528 0 26 17.7 22.5 0.00 0.69 0.23 93 1018.0
20260506133024 0 24 17.7 29.0 0.00 0.69 0.23 93 1018.0
20260506131528 0 44 19.3 25.7 0.00 0.69 0.23 93 1017.7
20260506130013 0 20 19.3 25.7 0.00 0.69 0.23 93 1017.3
20260506124517 0 34 19.3 24.1 0.03 0.69 0.23 93 1017.1
20260506123020 0 34 19.3 25.7 0.03 0.69 0.23 93 1016.9
20260506121526 0 41 22.5 30.6 0.03 0.69 0.23 92 1016.6
20260506120011 0 26 19.3 25.7 0.03 0.69 0.23 92 1016.6
20260506111522 0 46 22.5 30.6 0.00 0.66 0.20 90 1015.8
20260506110025 0 32 22.5 30.6 0.00 0.66 0.20 91 1015.8
20260506103018 1 27 22.5 33.8 0.00 0.66 0.20 91 1015.6
20260506100021 1 31 27.4 38.6 0.00 0.66 0.20 88 1015.4
20260506094528 1 39 24.1 33.8 0.00 0.66 0.20 87 1015.2
20260506093024 1 36 16.1 20.9 0.00 0.66 0.20 90 1015.4
20260506091520 1 34 12.9 19.3 0.00 0.66 0.20 91 1015.5
20260506084527 1 16 14.5 22.5 0.00 0.66 0.20 92 1015.4
20260506083024 1 11 12.9 17.7 0.03 0.66 0.20 93 1015.4
20260506081524 1 49 8.0 14.5 0.03 0.66 0.20 93 1015.4
20260506073025 1 24 4.8 6.4 0.13 0.64 0.18 93 1015.6
20260506071528 1 22 3.2 8.0 0.18 0.64 0.18 92 1015.6
20260506061508 2 92 1.6 4.8 0.03 0.46 0.00 93 1015.2